Regional Weather Roundup
Issued by NWS Upton, NY

Current Version | Previous Version | Graphics & Text | Print | Product List | Glossary Off
Versions: 1 2 3 4 5 6 7 8 9 10 11 12 13 14 15 16 17 18 19 20 21 22 23 24 25 26 27 28 29 30 31 32 33 34 35 36 37 38 39 40 41 42 43 44 45 46 47 48 49 50

000
ASUS41 KOKX 191005
RWROKX

REGIONAL WEATHER ROUNDUP
NATIONAL WEATHER SERVICE NEW YORK NY
600 AM EDT TUE AUG 19 2014

NOTE: "FAIR" INDICATES FEW OR NO CLOUDS BELOW 12,000 FEET WITH NO
SIGNIFICANT WEATHER AND/OR OBSTRUCTIONS TO VISIBILITY.

NYZ071-072-176-178-NJZ106-104-191100-
NEW YORK CITY METRO AREA


CITY           SKY/WX    TMP DP  RH WIND       PRES   REMARKS
CENTRAL PARK   CLEAR     63  54  72 VRB5      29.91R
LAGUARDIA APRT PTCLDY    66  57  72 NE7       29.88R
KENNEDY INTL   MOCLDY    65  56  72 NE8       29.88R
NEWARK/LIBERTY PTCLDY    63  54  72 N9        29.88R
BRNX BOT. GARD   N/A     63  50  63 N1        29.89S
TETERBORO      CLEAR     62  55  77 N3        29.88R
$$

NYZ177-179-078>081-191100-
LONG ISLAND NEW YORK

CITY           SKY/WX    TMP DP  RH WIND       PRES   REMARKS
FARMINGDALE    MOCLDY    61  54  77 NE6       29.89R
ISLIP          PTCLDY    60  52  74 CALM      29.87R
SHIRLEY        CLEAR     58  54  86 CALM      29.89R
WESTHAMPTON    CLEAR     56  51  84 CALM      29.90R
MONTAUK POINT    N/A     64  54  69 NE5       29.91R
$$

NYZ052-065-067-191100-
HUDSON VALLEY

CITY           SKY/WX    TMP DP  RH WIND       PRES   REMARKS
WHITE PLAINS   CLEAR     60  49  66 NE6       29.89R
NEWBURGH       CLEAR     54  54 100 CALM      29.92
MONTGOMERY     CLEAR     49  47  93 CALM      29.91S
POUGHKEEPSIE   CLEAR     51  48  89 CALM      29.90S
ALBANY         PTCLDY    52  49  89 CALM      29.93R
$$

NJZ001-105-106-008-010-013-015-019>022-104-191100-
NEW JERSEY

CITY           SKY/WX    TMP DP  RH WIND       PRES   REMARKS
NEWARK/LIBERTY PTCLDY    63  54  72 N9        29.88R
TETERBORO      CLEAR     62  55  77 N3        29.88R
CALDWELL       CLEAR     57  52  83 CALM      29.90R
MORRISTOWN     PTCLDY    54  52  94 CALM      29.90R
SOMERVILLE     MOCLDY    55  52  89 NW3       29.87R
LINDEN         PTSUNNY   70  57  63 N6        29.89S
SUSSEX         CLEAR     51  47  86 CALM      29.91R
ANDOVER          N/A     53  51  93 CALM      29.91R
TRENTON        CLEAR     60  53  77 CALM      29.87R
MILLVILLE      MOCLDY    67  63  87 NE3       29.85R
ATLANTIC CITY  PTCLDY    64  62  93 CALM      29.86R
WRIGHTSTOWN    CLEAR     59  58  97 NE2       29.85R
TOMS RIVER     CLEAR     61  57  88 CALM      29.87R
BELMAR         MOCLDY    63  57  82 N6        29.87R
$$

PAZ047>061-062-071-191100-
EASTERN PENNSYLVANIA

CITY           SKY/WX    TMP DP  RH WIND       PRES   REMARKS
PHILADELPHIA   CLEAR     66  56  70 NE7       29.87R
ALLENTOWN      CLEAR     55  52  89 NW3       29.89R
SCRANTON       CLEAR     55  50  83 E5        29.91R
$$

CTZ002-004>006-009-010-012-RIZ004-006-007-MAZ004-011-015-191100-
SOUTHERN NEW ENGLAND
 IN CT

CITY           SKY/WX    TMP DP  RH WIND       PRES   REMARKS
BRADLEY INTL   PTCLDY    52  49  89 CALM      29.91S
HARTFORD       CLEAR     52  50  93 CALM      29.92R
DANBURY        CLEAR     52  50  93 CALM      29.92S
WTRBRY/OXFORD  PTCLDY    52  45  76 NE5       29.92F
BRIDGEPORT     CLEAR     60  54  80 N8        29.89R
MERIDEN        CLEAR     51  48  89 CALM      29.91S
NEW HAVEN      CLEAR     57  51  80 N5        29.90R
CHESTER        FAIR      54  50  87 NW3       29.92R
GROTON         CLEAR     55  52  89 N7        29.90R
WILLIMANTIC    PTCLDY    50  47  89 N6        29.92R

 IN RI

CITY           SKY/WX    TMP DP  RH WIND       PRES   REMARKS
PROVIDENCE     PTCLDY    55  51  86 W3        29.91R
BLOCK ISLAND   CLEAR     61  54  77 NE5       29.90R
WESTERLY       CLEAR     54  50  86 N3        29.91R

 IN MA

CITY           SKY/WX    TMP DP  RH WIND       PRES   REMARKS
BOSTON         PTCLDY    59  49  69 W9        29.90R
WORCESTER      CLEAR     55  47  74 NW6       29.92R
WESTFIELD      CLEAR     49  46  90 CALM      29.92R
PROVINCETOWN   CLEAR     61  55  82 MISG      29.89R
NANTUCKET      CLEAR     58  57  97 MISG      29.89R
$$

ANZ330-335-338-340-345-350-353-355-191100-
COASTAL MARINE OBSERVATIONS


STATION/POSITION TIME  SKY/WX   TEMP    WIND        PRES    VSBY  WAVE
                                AIR SEA DIR/SP/G                  HT/PER
                 (UTC)          (F)     (DEG/KT/KT) (MB)    (MI)  (FT/S)
NY HARB ENTRANCE NOT AVBL
4S FIRE IS       NOT AVBL
23SW MTP         1000            67 69              1011.5          1/ 9
HUDSON CANYON    1000            72 74  130/  8/  8 1011.2          1/ 8
EXECUTION ROCKS  1000            67 72   40/ 12/ 16   N/A
WESTERN LI SOUND 1000            66      50/ 12/ 14   N/A           1/ 2
CENTRAL LI SOUND 0900            65 71   60/ 10/ 12   N/A           1
EASTERN LI SOUND 0900            61 68   20/ 10/ 12   N/A
ROBBINS REEF     1000            67      10/  6/  9   N/A
$$


>>>>>>>>>>>>>>>>>>>>>>>>>>>> KEY <<<<<<<<<<<<<<<<<<<<<<<<<<<
>                                                          <
>     SKY/WX - SKY CONDITION/PRESENT WEATHER               <
>     TMP    - TEMPERATURE IN FAHRENHEIT                   <
>     DP     - DEWPOINT IN FAHRENHEIT                      <
>     RH     - RELATIVE HUMIDITY IN PERCENT                <
>     WIND   - DIRECTION AND SPEED IN MPH                  <
>     PRES   - MEAN SEA LEVEL PRESSURE IN INCHES OF HG     <
>     WCI    - WIND CHILL INDEX                            <
>     VSB    - VISIBILITY IN MILES                         <
>     HX     - HEAT INDEX                                  <
>     TC     - TEMPERATURE IN CELSIUS                      <
>     VRB    - VARIABLE WIND DIRECTION                     <
>                                                          <
>>>>>>>>>>>>>>>>>>>>>>>>>>>> KEY <<<<<<<<<<<<<<<<<<<<<<<<<<<





USA.gov is the U.S. government's official web portal to all federal, state and local government web resources and services.